| time (UTC) | temp F | wind direction | speed knots | gust knots | rain 1hr in | rain 24hr in | rain mn in | humidity % | barometer mb |
| 20260504214307 | 60 | 219 | 0.0 | 0.0 | 0.00 | 0.00 | 0.00 | 73 | 1021.1 |
| 20260504213307 | 60 | 219 | 0.0 | 0.0 | 0.00 | 0.00 | 0.00 | 71 | 1021.2 |
| 20260504212807 | 60 | 223 | 0.0 | 0.0 | 0.00 | 0.00 | 0.00 | 72 | 1021.3 |
| 20260504212320 | 60 | 223 | 0.0 | 0.0 | 0.00 | 0.00 | 0.00 | 72 | 1021.2 |
| 20260504211808 | 60 | 223 | 0.0 | 0.0 | 0.00 | 0.00 | 0.00 | 72 | 1021.2 |
| 20260504211307 | 60 | 224 | 0.0 | 0.0 | 0.00 | 0.00 | 0.00 | 72 | 1021.2 |
| 20260504210808 | 60 | 224 | 0.0 | 0.0 | 0.00 | 0.00 | 0.00 | 72 | 1021.2 |
| 20260504210320 | 60 | 224 | 0.0 | 0.0 | 0.00 | 0.00 | 0.00 | 72 | 1021.2 |
| 20260504205806 | 61 | 224 | 0.0 | 0.0 | 0.00 | 0.00 | 0.00 | 71 | 1021.3 |
| 20260504205309 | 61 | 224 | 0.0 | 0.0 | 0.00 | 0.00 | 0.00 | 69 | 1021.3 |
| 20260504204804 | 61 | 224 | 0.0 | 0.0 | 0.00 | 0.00 | 0.00 | 69 | 1021.5 |
| 20260504204303 | 61 | 224 | 0.0 | 0.0 | 0.00 | 0.00 | 0.00 | 69 | 1021.3 |
| 20260504203802 | 61 | 224 | 0.0 | 0.0 | 0.00 | 0.00 | 0.00 | 69 | 1021.3 |
| 20260504203303 | 61 | 224 | 0.0 | 0.0 | 0.00 | 0.00 | 0.00 | 69 | 1021.4 |
| 20260504202804 | 61 | 224 | 0.0 | 0.0 | 0.00 | 0.00 | 0.00 | 69 | 1021.5 |
| 20260504201802 | 62 | 224 | 0.0 | 0.0 | 0.00 | 0.00 | 0.00 | 68 | 1021.5 |
| 20260504201304 | 62 | 224 | 0.0 | 0.0 | 0.00 | 0.00 | 0.00 | 67 | 1021.5 |
| 20260504200301 | 62 | 224 | 0.0 | 0.0 | 0.00 | 0.00 | 0.00 | 65 | 1021.2 |
| 20260504195759 | 62 | 224 | 0.0 | 0.0 | 0.00 | 0.00 | 0.00 | 65 | 1021.1 |
| 20260504195300 | 62 | 224 | 0.0 | 0.0 | 0.00 | 0.00 | 0.00 | 64 | 1021.2 |
| 20260504194759 | 63 | 224 | 0.0 | 0.0 | 0.00 | 0.00 | 0.00 | 64 | 1021.0 |
| 20260504194300 | 63 | 224 | 0.0 | 0.0 | 0.00 | 0.00 | 0.00 | 62 | 1021.2 |
| 20260504193759 | 63 | 224 | 0.0 | 0.0 | 0.00 | 0.00 | 0.00 | 62 | 1021.2 |
| 20260504193259 | 63 | 224 | 0.0 | 0.0 | 0.00 | 0.00 | 0.00 | 61 | 1021.2 |
| 20260504192802 | 63 | 224 | 0.0 | 0.0 | 0.00 | 0.00 | 0.00 | 61 | 1021.0 |
| 20260504192320 | 64 | 224 | 0.0 | 0.0 | 0.00 | 0.00 | 0.00 | 61 | 1021.0 |
| 20260504191257 | 64 | 224 | 0.0 | 0.0 | 0.00 | 0.00 | 0.00 | 60 | 1020.8 |
| 20260504190756 | 64 | 224 | 0.0 | 0.0 | 0.00 | 0.00 | 0.00 | 59 | 1020.8 |
| 20260504185756 | 65 | 224 | 0.0 | 0.0 | 0.00 | 0.00 | 0.00 | 58 | 1020.7 |
| 20260504184252 | 65 | 280 | 0.0 | 4.3 | 0.00 | 0.00 | 0.00 | 57 | 1020.8 |
| 20260504183251 | 65 | 273 | 0.0 | 0.0 | 0.00 | 0.00 | 0.00 | 58 | 1020.7 |
| 20260504182748 | 65 | 272 | 0.0 | 2.6 | 0.00 | 0.00 | 0.00 | 58 | 1020.8 |
| 20260504182249 | 65 | 272 | 0.0 | 2.6 | 0.00 | 0.00 | 0.00 | 58 | 1020.7 |
| 20260504181750 | 65 | 171 | 0.0 | 1.7 | 0.00 | 0.00 | 0.00 | 58 | 1020.8 |
| 20260504181248 | 65 | 235 | 0.0 | 0.9 | 0.00 | 0.00 | 0.00 | 58 | 1020.8 |
| 20260504180745 | 65 | 191 | 0.0 | 3.5 | 0.00 | 0.00 | 0.00 | 59 | 1020.7 |
| 20260504180245 | 65 | 195 | 0.0 | 3.5 | 0.00 | 0.00 | 0.00 | 58 | 1020.7 |
| 20260504175744 | 66 | 147 | 0.0 | 0.0 | 0.00 | 0.00 | 0.00 | 58 | 1020.6 |
| 20260504175246 | 66 | 173 | 0.0 | 0.0 | 0.00 | 0.00 | 0.00 | 57 | 1020.6 |
| 20260504174742 | 66 | 173 | 0.0 | 0.0 | 0.00 | 0.00 | 0.00 | 56 | 1020.5 |
| 20260504174242 | 67 | 173 | 0.0 | 0.0 | 0.00 | 0.00 | 0.00 | 55 | 1020.5 |
| 20260504173231 | 67 | 172 | 0.0 | 0.0 | 0.00 | 0.00 | 0.00 | 53 | 1020.5 |
| 20260504172728 | 67 | 172 | 0.0 | 0.0 | 0.00 | 0.00 | 0.00 | 53 | 1020.5 |
| 20260504172229 | 67 | 171 | 0.0 | 0.0 | 0.00 | 0.00 | 0.00 | 52 | 1020.6 |
| 20260504171728 | 67 | 212 | 0.0 | 1.7 | 0.00 | 0.00 | 0.00 | 52 | 1020.6 |
| 20260504171230 | 67 | 272 | 0.0 | 1.7 | 0.00 | 0.00 | 0.00 | 52 | 1020.6 |
| 20260504170729 | 67 | 256 | 0.0 | 4.3 | 0.00 | 0.00 | 0.00 | 52 | 1020.7 |
| 20260504170230 | 67 | 170 | 0.0 | 4.3 | 0.00 | 0.00 | 0.00 | 51 | 1020.6 |
| 20260504160227 | 69 | 266 | 0.9 | 6.1 | 0.00 | 0.00 | 0.00 | 52 | 1020.5 |
| 20260504150224 | 70 | 283 | 0.9 | 5.2 | 0.00 | 0.00 | 0.00 | 60 | 1020.6 |
| 20260504141214 | 71 | 180 | 0.0 | 2.6 | 0.00 | 0.00 | 0.00 | 53 | 1020.7 |
| 20260504140716 | 71 | 279 | 0.9 | 6.1 | 0.00 | 0.00 | 0.00 | 52 | 1020.7 |
| 20260504140214 | 71 | 293 | 0.9 | 6.1 | 0.00 | 0.00 | 0.00 | 51 | 1020.7 |
| 20260504130709 | 73 | 146 | 0.9 | 3.5 | 0.00 | 0.00 | 0.00 | 45 | 1021.2 |
| 20260504130204 | 73 | 134 | 0.9 | 5.2 | 0.00 | 0.00 | 0.00 | 45 | 1021.2 |
| 20260504120140 | 70 | 275 | 1.7 | 7.0 | 0.00 | 0.00 | 0.00 | 51 | 1021.7 |
| 20260504110637 | 72 | 154 | 1.7 | 5.2 | 0.00 | 0.00 | 0.00 | 46 | 1022.0 |
| 20260504110135 | 72 | 155 | 1.7 | 5.2 | 0.00 | 0.00 | 0.00 | 45 | 1022.0 |
| 20260504100132 | 71 | 101 | 0.0 | 3.5 | 0.00 | 0.00 | 0.00 | 46 | 1022.4 |
| 20260504081515 | 65 | 137 | 0.0 | 3.5 | 0.00 | 0.00 | 0.00 | 73 | 1022.7 |
| 20260504081007 | 64 | 127 | 0.0 | 1.7 | 0.00 | 0.00 | 0.00 | 74 | 1022.7 |
| 20260504080502 | 64 | 128 | 0.0 | 1.7 | 0.00 | 0.00 | 0.00 | 75 | 1022.8 |
| 20260504070347 | 58 | 91 | 1.7 | 4.3 | 0.00 | 0.00 | 0.00 | 78 | 1022.6 |
| 20260504050751 | 48 | 277 | 0.0 | 0.0 | 0.00 | 0.00 | 0.00 | 90 | 1022.3 |
| 20260504045249 | 47 | 277 | 0.0 | 0.0 | 0.00 | 0.00 | 0.00 | 90 | 1022.3 |
| 20260504044748 | 47 | 280 | 0.0 | 0.0 | 0.00 | 0.00 | 0.00 | 90 | 1022.2 |
| 20260504043746 | 46 | 280 | 0.0 | 0.0 | 0.00 | 0.00 | 0.00 | 90 | 1022.2 |
| 20260504043241 | 46 | 280 | 0.0 | 0.0 | 0.00 | 0.00 | 0.00 | 89 | 1022.1 |
| 20260504042740 | 46 | 280 | 0.0 | 0.0 | 0.00 | 0.00 | 0.00 | 89 | 1022.2 |
| 20260504042237 | 46 | 280 | 0.0 | 0.0 | 0.00 | 0.00 | 0.00 | 89 | 1022.2 |
| 20260504041735 | 46 | 280 | 0.0 | 0.0 | 0.00 | 0.00 | 0.00 | 89 | 1022.1 |
| 20260504040735 | 46 | 280 | 0.0 | 0.9 | 0.00 | 0.00 | 0.00 | 89 | 1022.0 |
| 20260504040235 | 46 | 280 | 0.0 | 2.6 | 0.00 | 0.00 | 0.00 | 89 | 1022.0 |
| 20260504035735 | 46 | 283 | 0.0 | 2.6 | 0.00 | 0.00 | 0.00 | 88 | 1022.0 |
| 20260504034740 | 46 | 271 | 0.0 | 1.7 | 0.00 | 0.00 | 0.00 | 88 | 1022.0 |
| 20260504034235 | 46 | 269 | 0.0 | 0.9 | 0.00 | 0.00 | 0.00 | 88 | 1022.0 |
| 20260504033735 | 46 | 269 | 0.0 | 0.0 | 0.00 | 0.00 | 0.00 | 89 | 1021.9 |
| 20260504033233 | 46 | 269 | 0.0 | 0.0 | 0.00 | 0.00 | 0.00 | 88 | 1022.0 |
| 20260504032734 | 46 | 269 | 0.0 | 1.7 | 0.00 | 0.00 | 0.00 | 88 | 1022.1 |
| 20260504032231 | 46 | 269 | 0.0 | 1.7 | 0.00 | 0.00 | 0.00 | 88 | 1022.2 |
| 20260504031731 | 46 | 271 | 0.0 | 0.0 | 0.00 | 0.00 | 0.00 | 88 | 1022.1 |
| 20260504031238 | 46 | 271 | 0.0 | 0.0 | 0.00 | 0.00 | 0.00 | 88 | 1022.0 |
| 20260504030720 | 46 | 271 | 0.0 | 0.0 | 0.00 | 0.00 | 0.00 | 87 | 1022.1 |
| 20260504030216 | 47 | 271 | 0.0 | 0.9 | 0.00 | 0.00 | 0.00 | 88 | 1022.1 |
| 20260504025211 | 47 | 271 | 0.0 | 1.7 | 0.00 | 0.00 | 0.00 | 88 | 1022.1 |
| 20260504024709 | 47 | 271 | 0.9 | 3.5 | 0.00 | 0.00 | 0.00 | 87 | 1022.1 |
| 20260504024209 | 47 | 274 | 0.0 | 3.5 | 0.00 | 0.00 | 0.00 | 87 | 1022.1 |
| 20260504023710 | 47 | 271 | 0.0 | 0.9 | 0.00 | 0.00 | 0.00 | 87 | 1022.2 |
| 20260504023207 | 47 | 271 | 0.0 | 0.0 | 0.00 | 0.00 | 0.00 | 87 | 1022.1 |
| 20260504022707 | 47 | 271 | 0.0 | 0.0 | 0.00 | 0.00 | 0.00 | 87 | 1022.1 |
| 20260504022207 | 47 | 271 | 0.0 | 0.0 | 0.00 | 0.00 | 0.00 | 87 | 1022.2 |
| 20260504021705 | 47 | 271 | 0.0 | 0.0 | 0.00 | 0.00 | 0.00 | 87 | 1022.3 |
| 20260504021203 | 47 | 271 | 0.0 | 0.0 | 0.00 | 0.00 | 0.00 | 87 | 1022.3 |
| 20260504020703 | 47 | 271 | 0.0 | 0.0 | 0.00 | 0.00 | 0.00 | 86 | 1022.3 |
| 20260504015659 | 48 | 271 | 0.0 | 0.0 | 0.00 | 0.00 | 0.00 | 86 | 1022.2 |
| 20260504015159 | 48 | 271 | 0.0 | 0.0 | 0.00 | 0.00 | 0.00 | 86 | 1022.2 |
| 20260504014659 | 48 | 271 | 0.0 | 0.0 | 0.00 | 0.00 | 0.00 | 86 | 1022.2 |
| 20260504014200 | 48 | 271 | 0.0 | 0.0 | 0.00 | 0.00 | 0.00 | 86 | 1022.2 |
| 20260504013703 | 48 | 271 | 0.0 | 0.0 | 0.00 | 0.00 | 0.00 | 85 | 1022.1 |
| 20260504013157 | 49 | 271 | 0.0 | 0.0 | 0.00 | 0.00 | 0.00 | 85 | 1022.2 |
| 20260504012658 | 49 | 271 | 0.0 | 0.0 | 0.00 | 0.00 | 0.00 | 85 | 1022.1 |
| 20260504012158 | 49 | 271 | 0.0 | 0.0 | 0.00 | 0.00 | 0.00 | 85 | 1022.1 |
| 20260504011657 | 49 | 271 | 0.0 | 0.0 | 0.00 | 0.00 | 0.00 | 85 | 1022.1 |
| 20260504011159 | 49 | 271 | 0.0 | 0.0 | 0.00 | 0.00 | 0.00 | 85 | 1022.1 |
| 20260504010657 | 49 | 271 | 0.0 | 0.0 | 0.00 | 0.00 | 0.00 | 85 | 1022.1 |
| 20260504010157 | 50 | 271 | 0.0 | 0.0 | 0.00 | 0.00 | 0.00 | 85 | 1022.2 |
| 20260504005657 | 50 | 271 | 0.0 | 0.0 | 0.00 | 0.00 | 0.00 | 85 | 1022.2 |
| 20260504005200 | 50 | 271 | 0.0 | 0.9 | 0.00 | 0.00 | 0.00 | 84 | 1022.2 |
| 20260504004657 | 50 | 271 | 0.0 | 0.9 | 0.00 | 0.00 | 0.00 | 84 | 1022.3 |
| 20260504004157 | 50 | 271 | 0.0 | 1.7 | 0.00 | 0.00 | 0.00 | 84 | 1022.4 |
| 20260504003657 | 50 | 271 | 0.0 | 1.7 | 0.00 | 0.00 | 0.00 | 84 | 1022.2 |
| 20260504002156 | 51 | 271 | 0.0 | 0.0 | 0.00 | 0.00 | 0.00 | 84 | 1022.3 |
| 20260504001659 | 51 | 271 | 0.0 | 2.6 | 0.00 | 0.00 | 0.00 | 83 | 1022.3 |
| 20260504001155 | 51 | 272 | 0.0 | 2.6 | 0.00 | 0.00 | 0.00 | 83 | 1022.3 |
| 20260504000654 | 51 | 269 | 0.0 | 1.7 | 0.00 | 0.00 | 0.00 | 83 | 1022.3 |
| 20260503235656 | 52 | 269 | 0.0 | 1.7 | 0.00 | 0.00 | 0.00 | 82 | 1022.4 |
| 20260503235155 | 52 | 268 | 0.0 | 1.7 | 0.00 | 0.00 | 0.00 | 83 | 1022.4 |
| 20260503234656 | 52 | 267 | 0.0 | 1.7 | 0.00 | 0.00 | 0.00 | 83 | 1022.3 |
| 20260503234156 | 52 | 269 | 0.0 | 0.9 | 0.00 | 0.00 | 0.00 | 83 | 1022.4 |
| 20260503233654 | 52 | 269 | 0.0 | 0.9 | 0.00 | 0.00 | 0.00 | 83 | 1022.5 |
| 20260503233152 | 52 | 269 | 0.0 | 2.6 | 0.00 | 0.00 | 0.00 | 83 | 1022.5 |
| 20260503232150 | 52 | 280 | 0.0 | 1.7 | 0.00 | 0.00 | 0.00 | 82 | 1022.6 |
| 20260503231644 | 52 | 280 | 0.0 | 2.6 | 0.00 | 0.00 | 0.00 | 82 | 1022.5 |
| 20260503231138 | 53 | 281 | 0.0 | 2.6 | 0.00 | 0.00 | 0.00 | 81 | 1022.6 |
| 20260503230634 | 53 | 271 | 0.0 | 0.0 | 0.00 | 0.00 | 0.00 | 81 | 1022.6 |
| 20260503230126 | 53 | 271 | 0.0 | 0.0 | 0.00 | 0.00 | 0.00 | 81 | 1022.6 |
| 20260503225114 | 54 | 270 | 0.0 | 2.6 | 0.00 | 0.00 | 0.00 | 80 | 1022.5 |
| 20260503224608 | 54 | 271 | 0.0 | 2.6 | 0.00 | 0.00 | 0.00 | 80 | 1022.6 |
| 20260503223558 | 55 | 264 | 0.0 | 0.0 | 0.00 | 0.00 | 0.00 | 80 | 1022.6 |
| 20260503223049 | 55 | 264 | 0.0 | 0.0 | 0.00 | 0.00 | 0.00 | 80 | 1022.6 |
| 20260503222557 | 55 | 264 | 0.0 | 0.0 | 0.00 | 0.00 | 0.00 | 80 | 1022.5 |
| 20260503222039 | 55 | 264 | 0.0 | 0.0 | 0.00 | 0.00 | 0.00 | 80 | 1022.5 |
| 20260503221031 | 55 | 264 | 0.0 | 0.0 | 0.00 | 0.00 | 0.00 | 79 | 1022.4 |
| 20260503220532 | 55 | 264 | 0.0 | 0.0 | 0.00 | 0.00 | 0.00 | 79 | 1022.4 |
| 20260503220030 | 56 | 277 | 0.0 | 0.0 | 0.00 | 0.00 | 0.00 | 78 | 1022.3 |
| 20260503215040 | 56 | 277 | 0.0 | 0.0 | 0.00 | 0.00 | 0.00 | 77 | 1022.2 |